| time (UTC) | temp F | wind direction | speed MPH | gust MPH | rain 1hr in | rain 24hr in | rain mn in | humidity % | barometer mb |
| 20260508174522 | 60 | 0.0 | 0.0 | 0.00 | 0.02 | 0.02 | 63 | 1009.6 | |
| 20260508173019 | 60 | 0.0 | 0.0 | 0.00 | 0.02 | 0.02 | 67 | 1010.1 | |
| 20260508171518 | 59 | 0.0 | 0.0 | 0.00 | 0.02 | 0.02 | 68 | 1010.2 | |
| 20260508170015 | 57 | 0.0 | 0.0 | 0.00 | 0.02 | 0.02 | 73 | 1010.5 | |
| 20260508164516 | 56 | 0.0 | 0.0 | 0.00 | 0.02 | 0.02 | 78 | 1010.9 | |
| 20260508163010 | 55 | 0.0 | 0.0 | 0.00 | 0.02 | 0.02 | 77 | 1011.1 | |
| 20260508161509 | 55 | 0.0 | 0.0 | 0.00 | 0.02 | 0.02 | 75 | 1011.2 | |
| 20260508160014 | 55 | 0.0 | 0.0 | 0.00 | 0.02 | 0.02 | 72 | 1011.2 | |
| 20260508154508 | 55 | 0.0 | 0.0 | 0.00 | 0.02 | 0.02 | 72 | 1011.3 | |
| 20260508153008 | 55 | 0.0 | 0.0 | 0.00 | 0.02 | 0.02 | 71 | 1011.2 | |
| 20260508151509 | 55 | 0.0 | 0.0 | 0.00 | 0.02 | 0.02 | 71 | 1010.9 | |
| 20260508150018 | 56 | 0.0 | 0.0 | 0.00 | 0.02 | 0.02 | 69 | 1011.1 | |
| 20260508144505 | 56 | 0.0 | 0.0 | 0.00 | 0.02 | 0.02 | 69 | 1011.1 | |
| 20260508143005 | 56 | 0.0 | 0.0 | 0.00 | 0.02 | 0.02 | 69 | 1011.2 | |
| 20260508141502 | 55 | 0.0 | 0.0 | 0.00 | 0.02 | 0.02 | 72 | 1010.9 | |
| 20260508140107 | 54 | 0.0 | 0.0 | 0.00 | 0.02 | 0.02 | 73 | 1011.0 | |
| 20260508134605 | 54 | 0.0 | 0.0 | 0.00 | 0.02 | 0.02 | 73 | 1011.4 | |
| 20260508133056 | 54 | 0.0 | 0.0 | 0.00 | 0.02 | 0.02 | 75 | 1011.4 | |
| 20260508131554 | 53 | 0.0 | 0.0 | 0.00 | 0.02 | 0.02 | 75 | 1011.2 | |
| 20260508130051 | 52 | 0.0 | 0.0 | 0.00 | 0.02 | 0.02 | 77 | 1011.1 | |
| 20260508124548 | 51 | 0.0 | 0.0 | 0.00 | 0.02 | 0.02 | 78 | 1011.3 | |
| 20260508123044 | 50 | 0.0 | 0.0 | 0.00 | 0.02 | 0.02 | 78 | 1011.3 | |
| 20260508121543 | 49 | 0.0 | 0.0 | 0.00 | 0.02 | 0.02 | 81 | 1011.4 | |
| 20260508120044 | 49 | 0.0 | 0.0 | 0.00 | 0.02 | 0.02 | 82 | 1011.1 | |
| 20260508114551 | 48 | 0.0 | 0.0 | 0.00 | 0.02 | 0.02 | 84 | 1010.9 | |
| 20260508113044 | 47 | 0.0 | 0.0 | 0.00 | 0.02 | 0.02 | 84 | 1010.6 | |
| 20260508111557 | 46 | 0.0 | 0.0 | 0.00 | 0.02 | 0.02 | 85 | 1010.5 | |
| 20260508110041 | 45 | 0.0 | 0.0 | 0.00 | 0.02 | 0.02 | 86 | 1010.3 | |
| 20260508104540 | 45 | 0.0 | 0.0 | 0.00 | 0.02 | 0.02 | 85 | 1010.5 | |
| 20260508103039 | 45 | 0.0 | 0.0 | 0.00 | 0.02 | 0.02 | 84 | 1010.3 | |
| 20260508101538 | 46 | 0.0 | 0.0 | 0.00 | 0.02 | 0.02 | 84 | 1010.3 | |
| 20260508100037 | 47 | 0.0 | 0.0 | 0.02 | 0.02 | 0.02 | 83 | 1010.2 | |
| 20260508094535 | 47 | 0.0 | 0.0 | 0.02 | 0.02 | 0.02 | 83 | 1010.2 | |
| 20260508093035 | 47 | 0.0 | 0.0 | 0.02 | 0.02 | 0.02 | 85 | 1010.4 | |
| 20260508091543 | 47 | 0.0 | 0.0 | 0.02 | 0.02 | 0.02 | 85 | 1010.3 | |
| 20260508090035 | 47 | 0.0 | 0.0 | 0.00 | 0.00 | 0.00 | 84 | 1010.5 | |
| 20260508084533 | 47 | 0.0 | 0.0 | 0.00 | 0.00 | 0.00 | 84 | 1010.5 | |
| 20260508083034 | 47 | 0.0 | 0.0 | 0.00 | 0.00 | 0.00 | 82 | 1010.4 | |
| 20260508081543 | 47 | 0.0 | 0.0 | 0.00 | 0.00 | 0.00 | 82 | 1010.5 | |
| 20260508080031 | 47 | 0.0 | 0.0 | 0.00 | 0.00 | 0.00 | 84 | 1010.5 | |
| 20260508074529 | 46 | 0.0 | 0.0 | 0.00 | 0.00 | 0.00 | 85 | 1010.6 | |
| 20260508073028 | 46 | 0.0 | 0.0 | 0.00 | 0.00 | 0.00 | 85 | 1010.7 | |
| 20260508071527 | 46 | 0.0 | 0.0 | 0.00 | 0.00 | 0.00 | 84 | 1010.7 | |
| 20260508070025 | 46 | 0.0 | 0.0 | 0.00 | 0.00 | 0.00 | 83 | 1010.8 | |
| 20260508064527 | 46 | 0.0 | 0.0 | 0.00 | 0.00 | 0.00 | 82 | 1011.0 | |
| 20260508063022 | 46 | 0.0 | 0.0 | 0.00 | 0.00 | 0.00 | 81 | 1011.1 | |
| 20260508061520 | 47 | 0.0 | 0.0 | 0.00 | 0.00 | 0.00 | 80 | 1011.1 | |
| 20260508060018 | 47 | 0.0 | 0.0 | 0.00 | 0.00 | 0.00 | 79 | 1011.1 | |
| 20260508054516 | 48 | 0.0 | 0.0 | 0.00 | 0.00 | 0.00 | 76 | 1011.3 | |
| 20260508053015 | 49 | 0.0 | 0.0 | 0.00 | 0.00 | 0.00 | 74 | 1011.3 | |
| 20260508051526 | 49 | 0.0 | 0.0 | 0.00 | 0.00 | 0.00 | 72 | 1011.2 | |
| 20260508050012 | 49 | 0.0 | 0.0 | 0.00 | 0.00 | 0.00 | 71 | 1011.2 | |
| 20260508044511 | 49 | 0.0 | 0.0 | 0.00 | 0.00 | 0.00 | 71 | 1011.3 | |
| 20260508043017 | 48 | 0.0 | 0.0 | 0.00 | 0.00 | 0.00 | 73 | 1011.5 | |
| 20260508041509 | 48 | 0.0 | 0.0 | 0.00 | 0.00 | 0.00 | 73 | 1011.3 | |
| 20260508040005 | 47 | 0.0 | 0.0 | 0.00 | 0.00 | 0.00 | 74 | 1011.3 | |
| 20260508034504 | 47 | 0.0 | 0.0 | 0.00 | 0.00 | 0.00 | 74 | 1011.5 | |
| 20260508033003 | 48 | 0.0 | 0.0 | 0.00 | 0.00 | 0.00 | 74 | 1011.6 | |
| 20260508031503 | 48 | 0.0 | 0.0 | 0.00 | 0.00 | 0.00 | 71 | 1011.7 | |
| 20260508030003 | 49 | 0.0 | 0.0 | 0.00 | 0.00 | 0.00 | 68 | 1011.8 | |
| 20260508024502 | 50 | 0.0 | 0.0 | 0.00 | 0.00 | 0.00 | 66 | 1012.0 | |
| 20260508023002 | 50 | 0.0 | 0.0 | 0.00 | 0.00 | 0.00 | 64 | 1012.0 | |
| 20260508021501 | 50 | 0.0 | 0.0 | 0.00 | 0.00 | 0.00 | 63 | 1012.0 | |
| 20260508020004 | 51 | 0.0 | 0.0 | 0.00 | 0.00 | 0.00 | 62 | 1012.0 | |
| 20260508014601 | 51 | 0.0 | 0.0 | 0.00 | 0.00 | 0.00 | 59 | 1012.0 | |
| 20260508013100 | 52 | 0.0 | 0.0 | 0.00 | 0.00 | 0.00 | 56 | 1012.1 | |
| 20260508011609 | 53 | 0.0 | 0.0 | 0.00 | 0.00 | 0.00 | 54 | 1011.7 | |
| 20260508010059 | 53 | 0.0 | 0.0 | 0.00 | 0.00 | 0.00 | 50 | 1011.6 | |
| 20260508004600 | 54 | 0.0 | 0.0 | 0.00 | 0.00 | 0.00 | 47 | 1011.3 | |
| 20260508003059 | 55 | 0.0 | 0.0 | 0.00 | 0.00 | 0.00 | 43 | 1011.1 | |
| 20260508001559 | 56 | 0.0 | 0.0 | 0.00 | 0.00 | 0.00 | 42 | 1010.9 | |
| 20260508000100 | 56 | 0.0 | 0.0 | 0.00 | 0.00 | 0.00 | 41 | 1010.9 | |
| 20260507234559 | 56 | 0.0 | 0.0 | 0.00 | 0.00 | 0.00 | 40 | 1010.8 | |
| 20260507233056 | 56 | 0.0 | 0.0 | 0.00 | 0.00 | 0.00 | 39 | 1010.9 | |
| 20260507231559 | 57 | 0.0 | 0.0 | 0.00 | 0.00 | 0.00 | 38 | 1010.9 | |
| 20260507230054 | 58 | 0.0 | 0.0 | 0.00 | 0.00 | 0.00 | 35 | 1010.9 | |
| 20260507224558 | 57 | 0.0 | 0.0 | 0.00 | 0.00 | 0.00 | 37 | 1011.0 | |
| 20260507223057 | 58 | 0.0 | 0.0 | 0.00 | 0.00 | 0.00 | 38 | 1011.2 | |
| 20260507221553 | 58 | 0.0 | 0.0 | 0.00 | 0.00 | 0.00 | 37 | 1011.2 | |
| 20260507220052 | 57 | 0.0 | 0.0 | 0.00 | 0.00 | 0.00 | 36 | 1011.2 | |
| 20260507214551 | 57 | 0.0 | 0.0 | 0.00 | 0.00 | 0.00 | 37 | 1011.1 | |
| 20260507213051 | 57 | 0.0 | 0.0 | 0.00 | 0.00 | 0.00 | 38 | 1011.1 | |
| 20260507211551 | 59 | 0.0 | 0.0 | 0.00 | 0.00 | 0.00 | 36 | 1011.2 | |
| 20260507210050 | 58 | 0.0 | 0.0 | 0.00 | 0.00 | 0.00 | 37 | 1011.2 | |
| 20260507204553 | 57 | 0.0 | 0.0 | 0.00 | 0.00 | 0.00 | 38 | 1011.2 | |
| 20260507203049 | 57 | 0.0 | 0.0 | 0.00 | 0.00 | 0.00 | 38 | 1011.3 | |
| 20260507201558 | 59 | 0.0 | 0.0 | 0.00 | 0.00 | 0.00 | 39 | 1011.2 | |
| 20260507200046 | 57 | 0.0 | 0.0 | 0.00 | 0.00 | 0.00 | 39 | 1011.1 | |
| 20260507194546 | 58 | 0.0 | 0.0 | 0.00 | 0.00 | 0.00 | 39 | 1011.1 | |
| 20260507193050 | 58 | 0.0 | 0.0 | 0.00 | 0.00 | 0.00 | 39 | 1011.3 | |
| 20260507191543 | 57 | 0.0 | 0.0 | 0.00 | 0.00 | 0.00 | 38 | 1011.4 | |
| 20260507190043 | 57 | 0.0 | 0.0 | 0.00 | 0.00 | 0.00 | 39 | 1011.5 | |
| 20260507184542 | 58 | 0.0 | 0.0 | 0.00 | 0.00 | 0.00 | 41 | 1011.6 | |
| 20260507183044 | 56 | 0.0 | 0.0 | 0.00 | 0.00 | 0.00 | 40 | 1011.9 | |
| 20260507181539 | 57 | 0.0 | 0.0 | 0.00 | 0.00 | 0.00 | 43 | 1011.7 | |
| 20260507180039 | 58 | 0.0 | 0.0 | 0.00 | 0.00 | 0.00 | 42 | 1011.7 |